Regional Weather Roundup
Issued by NWS

Home | Current Version | Previous Version | Text Only | Print | Product List | Glossary Off
Versions: 1 2 3 4 5 6 7 8 9 10 11 12 13 14 15 16 17 18 19 20 21 22 23 24 25 26 27 28 29 30 31 32 33 34 35 36 37 38 39 40 41 42 43 44 45 46 47 48 49 50

000
ASUS45 KSLC 031710
RWRUT

UTAH REGIONAL WEATHER ROUNDUP
NATIONAL WEATHER SERVICE SALT LAKE CITY UT
1100 AM MDT THU SEP 03 2015

UTZ001>011-023>025-031800-

NORTHERN UTAH

CITY           SKY/WX    TMP DP  RH WIND       PRES   REMARKS
BRIGHAM CITY   MOSUNNY   83  33  16 S24G32    29.91S
HILL AFB       MOSUNNY   81  41  24 S23G31    29.95S
LOGAN          SUNNY     82  35  18 SW26G36   29.90S
OGDEN          MOSUNNY   83  39  21 S21G32    29.92S
PROVO AIRPORT  PTSUNNY   75  46  35 SE6       30.01R
SALT LAKE CITY PTSUNNY   82  40  22 S25G35    29.91F
VERNAL         PTSUNNY   72  44  36 SE3       30.06S
WENDOVER       SUNNY     81  37  21 S18       29.89S
HEBER CITY     PTSUNNY   77  34  20 S9        30.04S
WEST JORDAN    SUNNY     79  43  27 SE23      29.96S

$$

UTZ012>022-026-027-031800-

SOUTHERN/CENTRAL UTAH

CITY           SKY/WX    TMP DP  RH WIND       PRES   REMARKS
BLANDING       SUNNY     73  48  41 S5        30.25F
BRYCE CANYON   PTSUNNY   65  44  46 SE16      30.25S
CEDAR CITY     MOSUNNY   74  37  26 S20G30    30.08S
DELTA          PTSUNNY   78  38  23 S21G29    30.01R
HANKSVILLE     MOSUNNY   82  37  20 SW18G26   30.05S
MILFORD        PTSUNNY   77  43  29 S17       30.03S
MOAB/CYNLANDS  PTSUNNY   81  44  27 SW9       30.03F
PRICE          MOSUNNY   70  42  36 SE8       30.11S
ST GEORGE      PTSUNNY   88  43  20 SE12      29.94F
KANAB          PTSUNNY   73  48  40 CALM      30.16S

$$

REGIONAL REPORTS     COLORADO/ARIZONA

CITY           SKY/WX    TMP DP  RH WIND       PRES   REMARKS
CRAIG, CO      MOSUNNY   75  47  36 SW13      30.13F
GRAND JUNCTION CLOUDY    70  53  54 SE23G33   30.11R
RIFLE          CLOUDY    64  51  62 CALM      30.15R
MONTROSE       LGT RAIN  62  56  80 SE7       30.23R
CORTEZ         SUNNY     73  52  47 CALM      30.18F
PAGE, AZ       MOSUNNY   80  49  33 N6        30.05F
GRAND CANYON   MOSUNNY   71  36  27 S16       30.23R
KINGMAN        SUNNY     87  37  17 SW13      30.00S
FLAGSTAFF      MOSUNNY   68  39  34 S13G18    30.27S

$$

REGIONAL REPORTS    NEVADA/IDAHO/WYOMING

CITY           SKY/WX    TMP DP  RH WIND       PRES   REMARKS
LAS VEGAS, NV  MOSUNNY   88  39  17 S12G17    29.84S
ELY            SUNNY     74  35  24 S22       30.03S
ELKO           SUNNY     72  31  22 S6        29.94F
POCATELLO, ID  MOSUNNY   69  40  34 SW15      29.94S
BURLEY         SUNNY     64  43  46 W10G20    29.93S
EVANSTON, WY   MOSUNNY   74  33  22 SW24G36   30.10S
ROCK SPRINGS   PTSUNNY   71  38  29 W7        30.10F
KEMMERER       PTSUNNY   70  30  23 SW20G31   30.12S

$$


USA.gov is the U.S. government's official web portal to all federal, state and local government web resources and services.